timestamp,wind_dir_avg,wind_spd_avg,wind_spd_max_dir,wind_spd_gust,battery_voltage,lat,long
2023-08-25 00:04:00+00:00,261.0,6.0,260.0,7.29,12.49,47.59359,-54.27349
2023-08-25 00:14:01+00:00,263.0,5.82,261.0,6.9,12.49,47.59359,-54.27349
2023-08-25 00:24:01+00:00,254.0,5.92,250.0,7.08,12.49,47.59359,-54.27349
2023-08-25 00:34:01+00:00,255.0,5.61,253.0,7.27,12.49,47.59359,-54.27349
2023-08-25 00:44:01+00:00,248.0,4.96,248.0,5.87,12.49,47.59359,-54.27349
2023-08-25 00:54:01+00:00,272.0,5.63,274.0,6.47,12.49,47.59359,-54.27349
2023-08-25 01:04:01+00:00,272.0,4.24,273.0,4.94,12.49,47.59359,-54.27349
2023-08-25 01:14:01+00:00,257.0,4.32,269.0,5.39,12.41,47.59359,-54.27349
2023-08-25 01:24:01+00:00,263.0,4.48,264.0,5.27,12.41,47.59359,-54.27349
2023-08-25 01:34:01+00:00,255.0,4.33,255.0,4.8,12.41,47.59359,-54.27349
2023-08-25 01:44:01+00:00,264.0,4.27,265.0,4.81,12.41,47.59359,-54.27349
2023-08-25 01:54:01+00:00,263.0,3.99,265.0,4.69,12.41,47.59359,-54.27349
2023-08-25 02:04:01+00:00,294.0,4.29,294.0,4.78,12.41,47.59359,-54.27349
2023-08-25 02:14:01+00:00,300.0,4.18,301.0,4.68,12.41,47.59359,-54.27349
2023-08-25 02:24:01+00:00,286.0,3.89,282.0,4.48,12.41,47.59359,-54.27349
2023-08-25 02:34:01+00:00,311.0,4.03,315.0,4.55,12.41,47.59359,-54.27349
2023-08-25 02:44:01+00:00,310.0,3.39,320.0,4.07,12.41,47.59359,-54.27349
2023-08-25 02:54:01+00:00,311.0,3.9,314.0,4.52,12.41,47.59359,-54.27349
2023-08-25 03:04:01+00:00,321.0,4.22,326.0,4.65,12.41,47.59359,-54.27349
2023-08-25 03:14:01+00:00,322.0,4.63,329.0,5.18,12.41,47.59359,-54.27349
2023-08-25 03:24:01+00:00,312.0,2.97,316.0,3.31,12.41,47.59359,-54.27349
2023-08-25 03:34:01+00:00,299.0,2.94,298.0,3.42,12.41,47.59359,-54.27349
2023-08-25 03:44:01+00:00,326.0,1.42,331.0,1.69,12.41,47.59359,-54.27349
2023-08-25 03:54:01+00:00,333.0,1.65,333.0,2.08,12.41,47.59359,-54.27349
2023-08-25 04:04:01+00:00,344.0,3.28,345.0,3.77,12.41,47.59359,-54.27349
2023-08-25 04:14:00+00:00,337.0,3.25,336.0,3.86,12.41,47.59359,-54.27349
2023-08-25 04:24:00+00:00,323.0,3.33,322.0,3.76,12.41,47.59359,-54.27349
2023-08-25 04:34:00+00:00,316.0,3.89,316.0,4.75,12.41,47.59359,-54.27349
2023-08-25 04:44:00+00:00,307.0,2.96,308.0,3.35,12.41,47.59359,-54.27349
2023-08-25 04:54:00+00:00,315.0,2.75,313.0,3.19,12.41,47.59359,-54.27349
2023-08-25 05:04:00+00:00,325.0,2.19,326.0,2.6,12.41,47.59359,-54.27349
2023-08-25 05:14:00+00:00,340.0,2.97,339.0,3.54,12.41,47.59359,-54.27349
2023-08-25 05:24:00+00:00,345.0,2.89,346.0,3.25,12.41,47.59359,-54.27349
2023-08-25 05:34:00+00:00,336.0,3.03,335.0,3.69,12.41,47.59359,-54.27349
2023-08-25 05:44:00+00:00,342.0,3.46,354.0,3.93,12.41,47.59359,-54.27349
2023-08-25 05:54:00+00:00,355.0,3.58,359.0,4.18,12.41,47.59359,-54.27349
2023-08-25 06:04:00+00:00,348.0,4.25,347.0,4.69,12.41,47.59359,-54.27349
2023-08-25 06:14:00+00:00,351.0,4.84,351.0,5.23,12.41,47.59359,-54.27349
2023-08-25 06:24:00+00:00,338.0,6.08,335.0,6.61,12.41,47.59359,-54.27349
2023-08-25 06:34:00+00:00,330.0,5.13,326.0,6.08,12.41,47.59359,-54.27349
2023-08-25 06:44:00+00:00,348.0,5.9,350.0,7.17,12.41,47.59359,-54.27349
2023-08-25 06:54:00+00:00,351.0,6.47,7.0,7.23,12.41,47.59359,-54.27349
2023-08-25 07:04:00+00:00,359.0,4.89,355.0,5.39,12.41,47.59359,-54.27349
2023-08-25 07:14:01+00:00,358.0,3.67,3.0,4.15,12.33,47.59359,-54.27349
2023-08-25 07:24:01+00:00,359.0,4.37,2.0,5.19,12.33,47.59359,-54.27349
2023-08-25 07:34:01+00:00,357.0,4.58,1.0,5.18,12.33,47.59359,-54.27349
2023-08-25 07:44:01+00:00,359.0,4.67,359.0,5.26,12.33,47.59359,-54.27349
2023-08-25 07:54:01+00:00,352.0,4.17,357.0,5.12,12.33,47.59359,-54.27349
2023-08-25 08:04:01+00:00,1.0,3.85,2.0,4.75,12.33,47.59359,-54.27349
2023-08-25 08:14:00+00:00,357.0,3.33,354.0,3.91,12.25,47.59359,-54.27349
2023-08-25 08:24:00+00:00,353.0,3.52,354.0,3.89,12.25,47.59359,-54.27349
2023-08-25 08:34:00+00:00,353.0,3.29,351.0,3.93,12.25,47.59359,-54.27349
2023-08-25 08:44:00+00:00,337.0,3.69,333.0,4.17,12.25,47.59359,-54.27349
2023-08-25 08:54:00+00:00,333.0,3.98,335.0,4.66,12.25,47.59359,-54.27349
2023-08-25 09:04:00+00:00,337.0,3.83,332.0,4.36,12.25,47.59359,-54.27349
2023-08-25 09:14:00+00:00,337.0,3.59,335.0,4.17,12.25,47.59359,-54.27349
2023-08-25 09:24:00+00:00,337.0,3.64,339.0,4.37,12.25,47.59359,-54.27349
2023-08-25 09:34:00+00:00,341.0,3.42,351.0,4.28,12.25,47.59359,-54.27349
2023-08-25 09:44:00+00:00,341.0,3.67,324.0,4.46,12.25,47.59359,-54.27349
2023-08-25 09:54:00+00:00,346.0,4.15,2.0,4.9,12.25,47.59359,-54.27349
2023-08-25 10:04:00+00:00,342.0,4.44,333.0,5.3,12.25,47.59359,-54.27349
2023-08-25 10:14:00+00:00,338.0,4.01,326.0,5.08,13.29,47.59359,-54.27349
2023-08-25 10:24:00+00:00,328.0,4.02,330.0,4.79,13.29,47.59359,-54.27349
2023-08-25 10:34:00+00:00,343.0,3.94,326.0,4.69,13.29,47.59359,-54.27349
2023-08-25 10:44:00+00:00,340.0,3.77,342.0,4.58,13.29,47.59359,-54.27349
2023-08-25 10:54:00+00:00,346.0,3.55,346.0,4.29,13.29,47.59359,-54.27349
2023-08-25 11:04:00+00:00,355.0,4.21,356.0,4.66,13.29,47.59359,-54.27349
2023-08-25 11:14:01+00:00,351.0,4.75,354.0,5.23,13.68,47.59359,-54.27349
2023-08-25 11:24:01+00:00,352.0,3.88,359.0,4.53,13.68,47.59359,-54.27349
2023-08-25 11:34:01+00:00,348.0,3.36,350.0,3.78,13.68,47.59359,-54.27349
2023-08-25 11:44:01+00:00,1.0,2.46,5.0,2.97,13.68,47.59359,-54.27349
2023-08-25 11:54:01+00:00,352.0,1.88,357.0,2.29,13.68,47.59359,-54.27349
2023-08-25 12:04:01+00:00,7.0,1.55,2.0,2.33,13.68,47.59359,-54.27349
2023-08-25 12:14:01+00:00,21.0,1.55,23.0,1.87,14.16,47.59359,-54.27349
2023-08-25 12:24:01+00:00,34.0,1.01,40.0,1.49,14.16,47.59359,-54.27349
2023-08-25 12:34:01+00:00,14.0,0.69,18.0,1.04,14.16,47.59359,-54.27349
2023-08-25 12:44:01+00:00,311.0,0.21,331.0,0.46,14.16,47.59359,-54.27349
2023-08-25 12:54:01+00:00,330.0,0.82,329.0,1.25,14.16,47.59359,-54.27349
2023-08-25 13:04:01+00:00,293.0,0.32,282.0,0.6,14.16,47.59359,-54.27349
2023-08-25 13:14:00+00:00,352.0,0.15,2.0,0.43,14.32,47.59359,-54.27349
2023-08-25 13:24:00+00:00,126.0,0.73,122.0,1.14,14.32,47.59359,-54.27349
2023-08-25 13:34:00+00:00,120.0,0.81,112.0,1.26,14.32,47.59359,-54.27349
2023-08-25 13:44:00+00:00,129.0,1.57,132.0,1.87,14.32,47.59359,-54.27349
2023-08-25 13:54:00+00:00,141.0,1.66,143.0,2.03,14.32,47.59359,-54.27349
2023-08-25 14:04:00+00:00,127.0,1.61,115.0,2.11,14.32,47.59359,-54.27349
2023-08-25 14:14:00+00:00,172.0,1.07,173.0,1.37,13.6,47.59359,-54.27349
2023-08-25 14:24:00+00:00,199.0,0.68,198.0,0.84,13.6,47.59359,-54.27349
2023-08-25 14:34:00+00:00,219.0,1.18,217.0,1.49,13.6,47.59359,-54.27349
2023-08-25 14:44:00+00:00,258.0,1.93,254.0,2.23,13.6,47.59359,-54.27349
2023-08-25 14:54:00+00:00,253.0,1.99,248.0,2.36,13.6,47.59359,-54.27349
2023-08-25 15:04:00+00:00,258.0,1.7,263.0,2.12,13.6,47.59359,-54.27349
2023-08-25 15:14:01+00:00,219.0,1.51,216.0,1.91,13.53,47.59359,-54.27349
2023-08-25 15:24:01+00:00,214.0,1.48,214.0,1.8,13.53,47.59359,-54.27349
2023-08-25 15:34:01+00:00,213.0,1.76,222.0,2.19,13.53,47.59359,-54.27349
2023-08-25 15:44:01+00:00,229.0,1.37,230.0,1.69,13.53,47.59359,-54.27349
2023-08-25 15:54:01+00:00,214.0,2.54,214.0,3.03,13.53,47.59359,-54.27349
2023-08-25 16:04:01+00:00,201.0,2.78,198.0,3.24,13.53,47.59359,-54.27349
2023-08-25 16:14:00+00:00,200.0,2.43,201.0,2.76,14.24,47.59359,-54.27349
2023-08-25 16:24:00+00:00,187.0,2.3,184.0,2.61,14.24,47.59359,-54.27349
2023-08-25 16:34:00+00:00,191.0,2.44,190.0,2.71,14.24,47.59359,-54.27349
2023-08-25 16:44:00+00:00,193.0,2.15,193.0,2.37,14.24,47.59359,-54.27349
2023-08-25 16:54:00+00:00,211.0,2.78,213.0,3.1,14.24,47.59359,-54.27349
2023-08-25 17:04:00+00:00,208.0,3.47,208.0,3.93,14.24,47.59359,-54.27349
2023-08-25 17:14:00+00:00,214.0,4.58,215.0,4.88,14.32,47.59359,-54.27349
2023-08-25 17:24:00+00:00,212.0,4.94,213.0,5.47,14.32,47.59359,-54.27349
2023-08-25 17:34:00+00:00,219.0,4.82,225.0,5.29,14.32,47.59359,-54.27349
2023-08-25 17:44:00+00:00,215.0,3.95,213.0,4.31,14.32,47.59359,-54.27349
2023-08-25 17:54:00+00:00,211.0,4.85,210.0,5.56,14.32,47.59359,-54.27349
2023-08-25 18:04:00+00:00,214.0,5.28,217.0,5.72,14.32,47.59359,-54.27349
2023-08-25 18:14:00+00:00,216.0,5.79,217.0,6.3,14.0,47.59359,-54.27349
2023-08-25 18:24:00+00:00,219.0,5.64,222.0,6.13,14.0,47.59359,-54.27349
2023-08-25 18:34:00+00:00,213.0,5.62,217.0,6.18,14.0,47.59359,-54.27349
2023-08-25 18:44:00+00:00,219.0,5.33,227.0,5.85,14.0,47.59359,-54.27349
2023-08-25 18:54:00+00:00,218.0,5.77,219.0,6.53,14.0,47.59359,-54.27349
2023-08-25 19:04:00+00:00,220.0,5.63,220.0,6.13,14.0,47.59359,-54.27349
2023-08-25 19:14:00+00:00,217.0,5.64,215.0,6.25,13.84,47.59359,-54.27349
2023-08-25 19:24:00+00:00,210.0,5.86,211.0,6.57,13.84,47.59359,-54.27349
2023-08-25 19:34:00+00:00,210.0,5.43,213.0,6.07,13.84,47.59359,-54.27349
2023-08-25 19:44:00+00:00,211.0,6.72,212.0,7.17,13.84,47.59359,-54.27349
2023-08-25 19:54:00+00:00,208.0,5.82,208.0,6.29,13.84,47.59359,-54.27349
2023-08-25 20:04:00+00:00,207.0,5.92,211.0,6.8,13.84,47.59359,-54.27349
2023-08-25 20:14:00+00:00,211.0,6.43,211.0,7.6,13.53,47.59359,-54.27349
2023-08-25 20:24:00+00:00,213.0,6.41,214.0,7.2,13.53,47.59359,-54.27349
2023-08-25 20:34:00+00:00,208.0,6.07,207.0,6.94,13.53,47.59359,-54.27349
2023-08-25 20:44:00+00:00,214.0,5.41,218.0,5.85,13.53,47.59359,-54.27349
2023-08-25 20:54:00+00:00,216.0,5.53,221.0,6.21,13.53,47.59359,-54.27349
2023-08-25 21:04:00+00:00,219.0,5.57,218.0,6.14,13.53,47.59359,-54.27349
2023-08-25 21:14:01+00:00,217.0,5.38,215.0,5.87,13.29,47.59359,-54.27349
2023-08-25 21:24:01+00:00,214.0,5.66,214.0,6.19,13.29,47.59359,-54.27349
2023-08-25 21:34:01+00:00,214.0,5.81,216.0,6.45,13.29,47.59359,-54.27349
2023-08-25 21:44:01+00:00,218.0,5.06,224.0,5.72,13.29,47.59359,-54.27349
2023-08-25 21:54:01+00:00,220.0,4.81,224.0,6.17,13.29,47.59359,-54.27349
2023-08-25 22:04:01+00:00,224.0,4.96,237.0,6.71,13.29,47.59359,-54.27349
2023-08-25 22:14:01+00:00,229.0,5.54,236.0,6.49,12.97,47.59359,-54.27349
2023-08-25 22:24:01+00:00,222.0,5.28,221.0,6.37,12.97,47.59359,-54.27349
2023-08-25 22:34:01+00:00,226.0,5.27,235.0,6.61,12.97,47.59359,-54.27349
2023-08-25 22:44:01+00:00,228.0,4.07,238.0,5.0,12.97,47.59359,-54.27349
2023-08-25 22:54:01+00:00,231.0,3.83,239.0,4.73,12.97,47.59359,-54.27349
2023-08-25 23:04:01+00:00,247.0,4.32,251.0,4.79,12.97,47.59359,-54.27349
2023-08-25 23:14:00+00:00,254.0,5.67,255.0,6.12,12.49,47.59359,-54.27349
2023-08-25 23:24:00+00:00,242.0,4.84,233.0,5.55,12.49,47.59359,-54.27349
2023-08-25 23:34:00+00:00,240.0,4.83,241.0,5.61,12.49,47.59359,-54.27349
2023-08-25 23:44:00+00:00,240.0,4.41,241.0,5.03,12.49,47.59359,-54.27349
2023-08-25 23:54:00+00:00,227.0,3.56,235.0,4.48,12.49,47.59359,-54.27349
